Total_Precipitation_Accumulation
0.45 0.48 0.66 0.64 0.47 0.46 0.74 0.76 0.82 0.53 0.48 0.57 0.60 0.67 0.64 0.60 0.53 0.46 0.46 0.48 0.54 0.65 0.70 0.68 0.75 0.77 0.78 0.84 0.89 0.96 0.98 0.98 0.96 0.95 0.97 1.03 1.12 1.19 1.23 1.25 1.25 1.24 1.28 1.34
0.52 0.45 0.57 0.54 0.36 0.35 0.40 0.43 0.49 0.41 0.51 0.53 0.56 0.59 0.62 0.60 0.50 0.42 0.43 0.45 0.48 0.58 0.74 0.70 0.76 0.87 0.86 0.92 1.02 1.04 1.07 1.02 0.99 0.94 0.93 0.93 0.96 1.01 1.07 1.15 1.17 1.19 1.22 1.21
0.85 0.43 0.62 0.67 0.47 0.42 0.44 0.45 0.46 0.55 0.56 0.46 0.50 0.58 0.62 0.57 0.45 0.41 0.41 0.41 0.45 0.52 0.69 0.77 0.82 0.94 1.02 1.05 1.12 1.11 1.12 1.04 0.98 0.93 0.90 0.90 0.90 0.93 0.99 1.07 1.15 1.23 1.27 1.29
1.24 0.79 0.92 0.66 0.46 0.42 0.45 0.47 0.44 0.47 0.43 0.43 0.49 0.54 0.53 0.48 0.43 0.39 0.36 0.37 0.41 0.47 0.54 0.67 0.72 0.83 0.96 1.04 1.15 1.16 1.16 1.14 1.10 1.07 1.07 1.09 1.10 1.13 1.16 1.16 1.23 1.35 1.43 1.47
1.37 1.00 0.58 0.35 0.28 0.41 0.51 0.53 0.43 0.37 0.34 0.30 0.33 0.41 0.48 0.42 0.40 0.41 0.39 0.37 0.38 0.42 0.44 0.51 0.61 0.69 0.82 0.99 1.17 1.28 1.35 1.36 1.37 1.37 1.40 1.41 1.42 1.42 1.43 1.46 1.50 1.51 1.54 1.51
1.40 1.15 0.60 0.36 0.19 0.25 0.43 0.65 0.36 0.29 0.30 0.28 0.27 0.42 0.50 0.44 0.40 0.39 0.38 0.38 0.38 0.39 0.41 0.46 0.58 0.67 0.81 1.05 1.26 1.41 1.46 1.50 1.52 1.58 1.63 1.58 1.53 1.49 1.42 1.40 1.44 1.46 1.48 1.47
1.13 1.11 0.61 0.39 0.20 0.21 0.60 0.76 0.36 0.30 0.32 0.32 0.39 0.48 0.42 0.38 0.41 0.41 0.42 0.46 0.47 0.49 0.53 0.57 0.64 0.75 0.93 1.08 1.25 1.35 1.38 1.41 1.43 1.41 1.42 1.38 1.33 1.29 1.26 1.23 1.19 1.18 1.15 1.13
0.87 1.17 0.84 0.42 0.31 0.55 0.74 0.48 0.37 0.31 0.31 0.34 0.35 0.33 0.30 0.29 0.31 0.35 0.37 0.45 0.55 0.62 0.68 0.69 0.73 0.83 0.92 0.99 1.04 1.06 1.09 1.11 1.13 1.06 1.00 1.00 1.03 1.04 1.02 1.03 1.02 0.98 0.94 0.94
0.85 0.91 0.74 0.56 0.62 0.67 0.57 0.49 0.39 0.34 0.32 0.32 0.31 0.30 0.27 0.25 0.24 0.25 0.26 0.30 0.36 0.45 0.53 0.53 0.54 0.60 0.67 0.66 0.65 0.66 0.69 0.76 0.79 0.78 0.75 0.74 0.79 0.83 0.86 0.88 0.90 0.90 0.88 0.89
0.70 0.65 0.53 0.50 0.50 0.49 0.47 0.49 0.43 0.37 0.35 0.33 0.34 0.31 0.28 0.25 0.23 0.22 0.22 0.24 0.26 0.29 0.33 0.34 0.35 0.38 0.42 0.42 0.40 0.43 0.50 0.57 0.65 0.70 0.72 0.71 0.74 0.78 0.81 0.84 0.87 0.88 0.89 0.89
0.65 0.52 0.47 0.43 0.41 0.43 0.41 0.39 0.36 0.33 0.32 0.33 0.33 0.33 0.30 0.29 0.27 0.26 0.25 0.25 0.27 0.30 0.31 0.32 0.32 0.33 0.35 0.37 0.37 0.39 0.42 0.48 0.56 0.63 0.71 0.73 0.73 0.76 0.82 0.83 0.96 1.15 1.16 1.08
0.73 0.54 0.61 0.54 0.42 0.39 0.37 0.35 0.36 0.36 0.35 0.35 0.33 0.35 0.33 0.32 0.31 0.30 0.29 0.28 0.28 0.30 0.34 0.37 0.39 0.41 0.41 0.42 0.42 0.43 0.45 0.48 0.55 0.61 0.68 0.73 0.75 0.77 0.82 0.86 0.92 1.00 1.08 1.16
0.64 0.52 0.52 0.49 0.40 0.36 0.35 0.35 0.34 0.33 0.33 0.33 0.32 0.33 0.33 0.35 0.34 0.33 0.32 0.34 0.36 0.39 0.43 0.44 0.44 0.45 0.47 0.48 0.49 0.50 0.53 0.56 0.61 0.64 0.68 0.71 0.74 0.78 0.80 0.82 0.86 0.90 0.94 1.00
0.46 0.44 0.44 0.40 0.40 0.36 0.33 0.33 0.31 0.29 0.29 0.29 0.30 0.30 0.31 0.32 0.31 0.33 0.37 0.41 0.42 0.41 0.42 0.44 0.45 0.48 0.51 0.52 0.55 0.56 0.58 0.64 0.69 0.69 0.72 0.75 0.77 0.80 0.82 0.83 0.83 0.81 0.84 0.93
0.37 0.41 0.46 0.42 0.37 0.34 0.33 0.31 0.29 0.30 0.30 0.31 0.32 0.32 0.32 0.31 0.31 0.33 0.36 0.37 0.37 0.37 0.39 0.40 0.42 0.47 0.50 0.53 0.57 0.59 0.59 0.63 0.68 0.72 0.76 0.79 0.80 0.81 0.83 0.82 0.79 0.74 0.74 0.82
0.39 0.36 0.35 0.35 0.37 0.37 0.35 0.33 0.32 0.34 0.34 0.34 0.34 0.35 0.35 0.34 0.33 0.32 0.32 0.31 0.34 0.37 0.39 0.41 0.45 0.48 0.49 0.53 0.57 0.58 0.60 0.69 0.74 0.74 0.75 0.77 0.80 0.81 0.82 0.80 0.79 0.74 0.72 0.76
0.52 0.48 0.45 0.45 0.42 0.41 0.41 0.42 0.42 0.43 0.40 0.38 0.38 0.38 0.35 0.33 0.30 0.30 0.32 0.33 0.36 0.39 0.41 0.43 0.47 0.47 0.48 0.51 0.56 0.59 0.60 0.65 0.73 0.71 0.69 0.73 0.81 0.85 0.84 0.83 0.81 0.75 0.71 0.77
0.59 0.61 0.62 0.64 0.60 0.54 0.49 0.46 0.45 0.44 0.45 0.44 0.41 0.37 0.36 0.36 0.36 0.36 0.37 0.37 0.35 0.35 0.37 0.41 0.45 0.47 0.46 0.50 0.57 0.60 0.61 0.63 0.66 0.70 0.73 0.78 0.87 0.90 0.90 0.89 0.85 0.83 0.77 0.81
0.49 0.51 0.51 0.54 0.57 0.56 0.53 0.50 0.50 0.49 0.47 0.45 0.42 0.41 0.40 0.40 0.40 0.41 0.39 0.38 0.36 0.37 0.38 0.39 0.45 0.43 0.43 0.48 0.60 0.62 0.64 0.67 0.67 0.69 0.74 0.83 0.87 0.84 0.87 0.90 0.89 0.88 0.88 0.88
0.41 0.41 0.42 0.46 0.48 0.49 0.51 0.49 0.48 0.48 0.48 0.47 0.46 0.43 0.40 0.40 0.42 0.42 0.39 0.39 0.42 0.46 0.43 0.44 0.43 0.39 0.40 0.46 0.59 0.63 0.65 0.67 0.69 0.70 0.72 0.76 0.78 0.78 0.79 0.83 0.86 0.88 0.88 0.88
0.42 0.40 0.39 0.41 0.45 0.47 0.48 0.49 0.49 0.51 0.50 0.48 0.49 0.49 0.46 0.44 0.44 0.43 0.42 0.40 0.39 0.39 0.39 0.40 0.38 0.40 0.48 0.63 0.67 0.61 0.60 0.63 0.65 0.68 0.71 0.73 0.73 0.73 0.74 0.77 0.80 0.82 0.83 0.83
0.44 0.44 0.43 0.43 0.45 0.48 0.49 0.50 0.49 0.49 0.47 0.46 0.46 0.46 0.44 0.42 0.39 0.38 0.37 0.40 0.40 0.44 0.45 0.38 0.38 0.52 0.74 0.83 0.67 0.56 0.56 0.60 0.63 0.66 0.68 0.69 0.71 0.71 0.71 0.72 0.76 0.77 0.78 0.81
0.46 0.46 0.45 0.44 0.44 0.44 0.42 0.42 0.42 0.44 0.45 0.46 0.46 0.46 0.44 0.42 0.41 0.42 0.42 0.38 0.38 0.46 0.48 0.43 0.53 0.71 0.84 0.77 0.61 0.57 0.59 0.61 0.62 0.64 0.66 0.69 0.71 0.74 0.75 0.73 0.73 0.76 0.77 0.77
0.39 0.39 0.40 0.39 0.35 0.32 0.33 0.34 0.35 0.37 0.38 0.39 0.40 0.40 0.39 0.37 0.34 0.33 0.36 0.38 0.41 0.48 0.47 0.48 0.59 0.68 0.70 0.61 0.56 0.58 0.60 0.60 0.61 0.61 0.63 0.64 0.66 0.68 0.69 0.69 0.68 0.67 0.68 0.70
0.35 0.33 0.31 0.30 0.29 0.28 0.28 0.28 0.27 0.27 0.28 0.30 0.31 0.32 0.33 0.35 0.38 0.34 0.31 0.31 0.34 0.40 0.39 0.41 0.48 0.52 0.51 0.49 0.51 0.55 0.57 0.59 0.66 0.70 0.67 0.64 0.63 0.63 0.62 0.62 0.64 0.64 0.63 0.63
0.31 0.30 0.29 0.29 0.29 0.28 0.28 0.26 0.25 0.24 0.25 0.26 0.27 0.29 0.31 0.32 0.32 0.31 0.30 0.30 0.31 0.35 0.35 0.34 0.36 0.39 0.42 0.45 0.48 0.50 0.52 0.53 0.56 0.59 0.59 0.59 0.59 0.59 0.57 0.56 0.56 0.57 0.58 0.58
0.24 0.23 0.23 0.22 0.22 0.23 0.24 0.25 0.26 0.26 0.26 0.29 0.32 0.30 0.30 0.30 0.30 0.29 0.28 0.29 0.30 0.31 0.31 0.31 0.33 0.37 0.40 0.42 0.44 0.45 0.45 0.47 0.49 0.51 0.52 0.54 0.54 0.54 0.53 0.54 0.55 0.54 0.55 0.55